When you browse on this site, cookies collect data to enhance your experience and personalize the content and advertising you see.
Visit our Privacy Policy to learn more. By continuing to use the site, you agree to this use of cookies and data.
  • en Suisse
  • Liste des pays
  • À 7 jours
  • Température de l'eau
  • Carte météo
  • Widgets météo
  • user-avatar
    Se connecter

    Météo par heure à Toporovo

    Ce jour, 5 Juin, Vendredi

    Heure Température Précipitation Vent Pression Humidité
    00:00 +8°C° 0 mm 2 m/s 731 mmHg 96%
    01:00 +8°C° 0 mm 2 m/s 732 mmHg 97%
    02:00 +7°C° 0 mm 2 m/s 732 mmHg 97%
    03:00 +8°C° 0 mm 2 m/s 732 mmHg 97%
    04:00 +8°C° 0 mm 2 m/s 731 mmHg 97%
    05:00 +8°C° 0 mm 2 m/s 731 mmHg 97%
    06:00 +10°C° 0.1 mm 3 m/s 732 mmHg 94%
    07:00 +11°C° 0.1 mm 3 m/s 732 mmHg 91%
    08:00 +13°C° 0.1 mm 3 m/s 732 mmHg 87%
    09:00 +14°C° 0.9 mm 3 m/s 732 mmHg 86%
    10:00 +14°C° 0.9 mm 4 m/s 732 mmHg 85%
    11:00 +15°C° 0.9 mm 4 m/s 732 mmHg 84%
    12:00 +15°C° 0.4 mm 4 m/s 732 mmHg 81%
    13:00 +17°C° 0.4 mm 3 m/s 733 mmHg 77%
    14:00 +18°C° 0.4 mm 3 m/s 733 mmHg 73%
    15:00 +18°C° 0 mm 3 m/s 733 mmHg 71%
    16:00 +18°C° 0 mm 2 m/s 733 mmHg 69%
    17:00 +18°C° 0 mm 2 m/s 733 mmHg 67%
    18:00 +17°C° 0 mm 2 m/s 733 mmHg 74%
    19:00 +15°C° 0 mm 2 m/s 733 mmHg 82%
    20:00 +14°C° 0 mm 2 m/s 734 mmHg 90%
    21:00 +13°C° 0 mm 2 m/s 734 mmHg 92%
    22:00 +12°C° 0 mm 2 m/s 734 mmHg 93%
    23:00 +12°C° 0 mm 2 m/s 734 mmHg 95%

    Demain, 6 Juin, Samedi

    Heure Température Précipitation Vent Pression Humidité
    00:00 +10°C° 0 mm 2 m/s 735 mmHg 95%
    01:00 +10°C° 0 mm 3 m/s 735 mmHg 95%
    02:00 +10°C° 0 mm 3 m/s 735 mmHg 96%
    03:00 +11°C° 0 mm 3 m/s 735 mmHg 96%
    04:00 +12°C° 0 mm 3 m/s 735 mmHg 96%
    05:00 +13°C° 0 mm 4 m/s 735 mmHg 96%
    06:00 +15°C° 0 mm 4 m/s 735 mmHg 91%
    07:00 +17°C° 0 mm 4 m/s 735 mmHg 86%
    08:00 +19°C° 0 mm 4 m/s 735 mmHg 81%
    09:00 +19°C° 0.6 mm 4 m/s 735 mmHg 84%
    10:00 +19°C° 0.6 mm 4 m/s 735 mmHg 86%
    11:00 +20°C° 0.6 mm 4 m/s 735 mmHg 89%
    12:00 +20°C° 0.5 mm 4 m/s 735 mmHg 88%
    13:00 +20°C° 0.5 mm 4 m/s 736 mmHg 86%
    14:00 +20°C° 0.5 mm 4 m/s 736 mmHg 84%
    15:00 +20°C° 0.2 mm 4 m/s 736 mmHg 84%
    16:00 +21°C° 0.2 mm 4 m/s 736 mmHg 83%
    17:00 +21°C° 0.2 mm 4 m/s 736 mmHg 82%
    18:00 +20°C° 0.1 mm 3 m/s 737 mmHg 86%
    19:00 +19°C° 0.1 mm 3 m/s 738 mmHg 90%
    20:00 +18°C° 0.1 mm 2 m/s 738 mmHg 93%
    21:00 +17°C° 0 mm 2 m/s 739 mmHg 94%
    22:00 +16°C° 0 mm 2 m/s 739 mmHg 95%
    23:00 +15°C° 0 mm 2 m/s 740 mmHg 95%

    Après-demain, 7 Juin, Dimanche

    Heure Température Précipitation Vent Pression Humidité
    00:00 +14°C° 0 mm 1 m/s 740 mmHg 95%
    01:00 +14°C° 0 mm 1 m/s 741 mmHg 94%
    02:00 +12°C° 0 mm 0 m/s 741 mmHg 94%
    03:00 +14°C° 0 mm 1 m/s 741 mmHg 93%
    04:00 +14°C° 0 mm 1 m/s 742 mmHg 92%
    05:00 +15°C° 0 mm 1 m/s 742 mmHg 91%
    06:00 +16°C° 0 mm 1 m/s 742 mmHg 86%
    07:00 +18°C° 0 mm 2 m/s 742 mmHg 80%
    08:00 +20°C° 0 mm 2 m/s 743 mmHg 74%
    09:00 +23°C° 0 mm 2 m/s 743 mmHg 70%
    10:00 +24°C° 0 mm 2 m/s 743 mmHg 65%
    11:00 +25°C° 0 mm 3 m/s 743 mmHg 60%
    12:00 +26°C° 0.1 mm 3 m/s 743 mmHg 61%
    13:00 +26°C° 0.1 mm 3 m/s 743 mmHg 62%
    14:00 +26°C° 0.1 mm 3 m/s 743 mmHg 63%
    15:00 +26°C° 0.4 mm 3 m/s 743 mmHg 70%
    16:00 +25°C° 0.4 mm 3 m/s 742 mmHg 76%
    17:00 +24°C° 0.4 mm 2 m/s 742 mmHg 83%
    18:00 +23°C° 0.3 mm 2 m/s 742 mmHg 86%
    19:00 +21°C° 0.3 mm 2 m/s 742 mmHg 90%
    20:00 +21°C° 0.3 mm 3 m/s 742 mmHg 93%
    21:00 +20°C° 0 mm 2 m/s 742 mmHg 94%
    22:00 +19°C° 0 mm 2 m/s 742 mmHg 95%
    23:00 +19°C° 0 mm 2 m/s 743 mmHg 97%

    8 Juin, Lundi

    Heure Température Précipitation Vent Pression Humidité
    00:00 +18°C° 0 mm 2 m/s 743 mmHg 96%
    01:00 +17°C° 0 mm 2 m/s 743 mmHg 96%
    02:00 +17°C° 0 mm 2 m/s 743 mmHg 96%
    03:00 +17°C° 0 mm 2 m/s 743 mmHg 96%
    04:00 +17°C° 0 mm 2 m/s 743 mmHg 96%
    05:00 +18°C° 0 mm 2 m/s 743 mmHg 96%
    06:00 +19°C° 0 mm 2 m/s 743 mmHg 90%
    07:00 +21°C° 0 mm 3 m/s 743 mmHg 84%
    08:00 +22°C° 0 mm 3 m/s 743 mmHg 78%
    09:00 +24°C° 0 mm 3 m/s 743 mmHg 72%
    10:00 +25°C° 0 mm 3 m/s 744 mmHg 67%
    11:00 +27°C° 0 mm 3 m/s 744 mmHg 62%
    12:00 +27°C° 0 mm 3 m/s 743 mmHg 61%
    13:00 +27°C° 0 mm 3 m/s 743 mmHg 60%
    14:00 +28°C° 0 mm 3 m/s 743 mmHg 59%
    15:00 +28°C° 0 mm 3 m/s 743 mmHg 62%
    16:00 +27°C° 0 mm 3 m/s 743 mmHg 66%
    17:00 +27°C° 0 mm 2 m/s 742 mmHg 69%
    18:00 +25°C° 0 mm 2 m/s 742 mmHg 75%
    19:00 +24°C° 0 mm 2 m/s 742 mmHg 82%
    20:00 +22°C° 0 mm 1 m/s 742 mmHg 89%
    21:00 +21°C° 0 mm 1 m/s 743 mmHg 90%
    22:00 +21°C° 0 mm 1 m/s 743 mmHg 92%
    23:00 +20°C° 0 mm 1 m/s 743 mmHg 93%

    9 Juin, Mardi

    Heure Température Précipitation Vent Pression Humidité
    00:00 +20°C° 0 mm 1 m/s 743 mmHg 94%
    01:00 +19°C° 0 mm 1 m/s 743 mmHg 95%
    02:00 +19°C° 0 mm 1 m/s 743 mmHg 95%
    03:00 +19°C° 0 mm 1 m/s 743 mmHg 95%
    04:00 +18°C° 0 mm 2 m/s 743 mmHg 95%
    05:00 +19°C° 0 mm 2 m/s 743 mmHg 94%
    06:00 +20°C° 0 mm 2 m/s 743 mmHg 88%
    07:00 +23°C° 0 mm 2 m/s 744 mmHg 82%
    08:00 +25°C° 0 mm 3 m/s 744 mmHg 76%
    09:00 +26°C° 0 mm 3 m/s 744 mmHg 70%
    10:00 +27°C° 0 mm 3 m/s 744 mmHg 64%
    11:00 +28°C° 0 mm 3 m/s 744 mmHg 59%
    12:00 +28°C° 0 mm 3 m/s 743 mmHg 57%
    13:00 +29°C° 0 mm 3 m/s 743 mmHg 56%
    14:00 +29°C° 0 mm 3 m/s 743 mmHg 55%
    15:00 +29°C° 0 mm 3 m/s 743 mmHg 58%
    16:00 +28°C° 0 mm 2 m/s 743 mmHg 61%
    17:00 +28°C° 0 mm 2 m/s 743 mmHg 64%
    18:00 +26°C° 0 mm 2 m/s 743 mmHg 71%
    19:00 +25°C° 0 mm 2 m/s 743 mmHg 78%
    20:00 +23°C° 0 mm 1 m/s 743 mmHg 86%
    21:00 +22°C° 0 mm 1 m/s 743 mmHg 88%
    22:00 +21°C° 0 mm 1 m/s 743 mmHg 90%
    23:00 +20°C° 0 mm 1 m/s 743 mmHg 92%

    10 Juin, Mercredi

    Heure Température Précipitation Vent Pression Humidité
    00:00 +20°C° 0 mm 1 m/s 743 mmHg 93%
    01:00 +19°C° 0 mm 1 m/s 743 mmHg 94%
    02:00 +19°C° 0 mm 1 m/s 743 mmHg 95%
    03:00 +19°C° 0 mm 1 m/s 743 mmHg 95%
    04:00 +20°C° 0 mm 1 m/s 743 mmHg 94%
    05:00 +20°C° 0 mm 1 m/s 743 mmHg 93%
    06:00 +22°C° 0 mm 1 m/s 743 mmHg 87%
    07:00 +24°C° 0 mm 2 m/s 744 mmHg 82%
    08:00 +25°C° 0 mm 2 m/s 744 mmHg 76%
    09:00 +27°C° 0.1 mm 2 m/s 744 mmHg 71%
    10:00 +28°C° 0.1 mm 2 m/s 744 mmHg 65%
    11:00 +29°C° 0.1 mm 2 m/s 744 mmHg 60%
    12:00 +29°C° 0.2 mm 2 m/s 744 mmHg 60%
    13:00 +29°C° 0.2 mm 2 m/s 743 mmHg 61%
    14:00 +29°C° 0.2 mm 2 m/s 743 mmHg 61%
    15:00 +29°C° 0.4 mm 2 m/s 743 mmHg 66%
    16:00 +28°C° 0.4 mm 2 m/s 743 mmHg 71%
    17:00 +28°C° 0.4 mm 2 m/s 743 mmHg 76%
    18:00 +26°C° 0.2 mm 2 m/s 743 mmHg 81%
    19:00 +25°C° 0.2 mm 1 m/s 743 mmHg 86%
    20:00 +23°C° 0.2 mm 1 m/s 743 mmHg 91%
    21:00 +22°C° 0 mm 1 m/s 743 mmHg 92%
    22:00 +22°C° 0 mm 1 m/s 743 mmHg 94%
    23:00 +20°C° 0 mm 2 m/s 743 mmHg 96%
    Voir plus